User: anonymous   Login
Location: Thompson
(55.7500°N, 97.8670°W)
Time: 14:30:27
(UTC-05:00)
Language:

Cosmos 1833 Rocket - Orbit

View from above orbital plane
View from above orbital plane
View from above satellite
View from above satellite

Ground track
Ground track

The orbit data is extracted from the following two-line orbital elements,

1 17590U 87027B   17263.66031726 +.00000211 +00000-0 +12936-3 0  9994
2 17590 071.0030 308.9344 0004699 184.8720 175.2358 14.16747896577412
Epoch (UTC): 20 September 2017 15:50:51
Eccentricity: 0.0004699
inclination: 71.0030°
perigee height: 833 km
apogee height: 840 km
right ascension of ascending node: 308.9344°
argument of perigee: 184.8720°
revolutions per day: 14.16747896
mean anomaly at epoch: 175.2358°
orbit number at epoch: 57741

The dashed part of the orbit path shows where the satellite is in the earth's shadow,  

DLR